Weather History for Waycross, GA

Change the Weather History Date:

Wednesday, January 1, 2014

  Actual Average (KAMG) Record (KAMG)
Temperature  
Mean Temperature 52 °F 50 °F  
Max Temperature 55 °F 61 °F 80 °F (1985)
Min Temperature 50 °F 40 °F 17 °F (1956)
Degree Days  
Heating Degree Days 12 15  
Month to date heating degree days 15  
Since 1 July heating degree days 655  
Cooling Degree Days 0 0  
Month to date cooling degree days 0  
Year to date cooling degree days 0  
Growing Degree Days 2 (Base 50)    
Moisture  
Dew Point 50 °F    
Average Humidity 89    
Maximum Humidity 100    
Minimum Humidity 76    
Precipitation  
Precipitation 0.00 in 0.13 in 1.51 in (1967)
Month to date precipitation 0.13  
Year to date precipitation 0.13  
Snow  
Snow 0.00 in 0.00 in 0.00 in ()
Month to date snowfall 0.0  
Since 1 July snowfall 0.1  
Snow Depth -    
Sea Level Pressure  
Sea Level Pressure 30.26 in    
Wind  
Wind Speed 2 mph (NE)    
Max Wind Speed 6 mph    
Max Gust Speed -    
Visibility 7 miles    
Events      
T = Trace of Precipitation, MM = Missing Value Source: NWS Daily Summary

Daily Weather History Graph

Daily Weather History Graph

Search for Another Location

Airport:

Trip Planner

Search our weather history database for the weather conditions in past years. The results will help you decide how hot, cold, wet, or windy it might be!

Date:

Astronomy

Jan. 01, 2014 Rise Set
Actual Time 7:28 AM EST 5:38 PM EST
Civil Twilight 7:01 AM EST 6:04 PM EST
Nautical Twilight 6:31 AM EST 6:35 PM EST
Astronomical Twilight 6:02 AM EST 7:04 PM EST
Moon 7:21 AM EST (1/1) 6:16 PM EST (1/1)
Length of Visible Light 11h 03m
Length of Day
10h 09m
New Moon, 0% of the Moon is Illuminated
Jan 1
New Moon
Jan 7
First Quarter
Jan 15
Full
Jan 24
Last Quarter
Jan 30
New

Hourly Weather History & Observations

Time (EST) Temp. Dew Point Humidity Pressure Visibility Wind Dir Wind Speed Gust Speed Precip Events Conditions
12:15 AM 51.8 °F 44.6 °F 76% 30.33 in 10.0 mi East 4.6 mph - N/A   Unknown
12:35 AM 51.8 °F 44.6 °F 76% 30.33 in 10.0 mi Calm Calm - N/A   Unknown
12:55 AM 51.8 °F 44.6 °F 76% 30.33 in 10.0 mi Calm Calm - N/A   Unknown
1:15 AM 51.8 °F 44.6 °F 76% 30.34 in 10.0 mi Calm Calm - N/A   Unknown
1:35 AM 51.8 °F 44.6 °F 76% 30.35 in 10.0 mi North 3.5 mph - N/A   Unknown
1:55 AM 51.8 °F 44.6 °F 76% 30.35 in 10.0 mi North 3.5 mph - N/A   Unknown
2:15 AM 51.8 °F 44.6 °F 76% 30.35 in 10.0 mi North 4.6 mph - N/A   Unknown
2:35 AM 51.8 °F 44.6 °F 76% 30.34 in 10.0 mi NE 3.5 mph - N/A   Unknown
2:55 AM 51.8 °F 44.6 °F 76% 30.33 in 10.0 mi Calm Calm - N/A   Unknown
3:15 AM 51.8 °F 44.6 °F 76% 30.33 in 10.0 mi Calm Calm - N/A   Unknown
3:35 AM 51.8 °F 44.6 °F 76% 30.32 in 10.0 mi Calm Calm - N/A   Unknown
3:55 AM 51.8 °F 44.6 °F 76% 30.31 in 10.0 mi Calm Calm - N/A   Unknown
4:15 AM 51.8 °F 44.6 °F 76% 30.32 in 10.0 mi North 3.5 mph - N/A   Unknown
4:35 AM 50.0 °F 46.4 °F 87% 30.32 in 10.0 mi Calm Calm - N/A   Unknown
4:55 AM 51.8 °F 44.6 °F 76% 30.31 in 10.0 mi Calm Calm - N/A   Unknown
5:15 AM 51.8 °F 44.6 °F 76% 30.30 in 10.0 mi Calm Calm - N/A   Unknown
5:35 AM 51.8 °F 44.6 °F 76% 30.30 in 10.0 mi Calm Calm - N/A   Unknown
5:55 AM 51.8 °F 46.4 °F 82% 30.31 in 10.0 mi Calm Calm - N/A   Unknown
6:15 AM 51.8 °F 44.6 °F 76% 30.31 in 10.0 mi Calm Calm - N/A   Unknown
6:35 AM 51.8 °F 46.4 °F 82% 30.31 in 10.0 mi Calm Calm - N/A   Unknown
6:55 AM 51.8 °F 46.4 °F 82% 30.32 in 10.0 mi NNE 3.5 mph - N/A   Unknown
7:15 AM 51.8 °F 46.4 °F 82% 30.32 in 10.0 mi Calm Calm - N/A   Unknown
7:35 AM 51.8 °F 46.4 °F 82% 30.31 in 10.0 mi East 3.5 mph - N/A   Unknown
7:55 AM 51.8 °F 46.4 °F 82% 30.32 in 10.0 mi Calm Calm - N/A   Unknown
8:15 AM 51.8 °F 46.4 °F 82% 30.32 in 10.0 mi Calm Calm - N/A   Unknown
8:35 AM 51.8 °F 46.4 °F 82% 30.31 in 10.0 mi East 3.5 mph - N/A   Unknown
8:55 AM 51.8 °F 46.4 °F 82% 30.32 in 10.0 mi Calm Calm - N/A   Unknown
9:15 AM 51.8 °F 46.4 °F 82% 30.32 in 10.0 mi Calm Calm - N/A   Unknown
9:35 AM 53.6 °F 48.2 °F 82% 30.33 in 10.0 mi NNE 4.6 mph - N/A   Unknown
9:55 AM 53.6 °F 48.2 °F 82% 30.33 in 10.0 mi NE 3.5 mph - N/A   Unknown
10:15 AM 53.6 °F 48.2 °F 82% 30.33 in 10.0 mi Calm Calm - N/A   Unknown
10:35 AM 53.6 °F 48.2 °F 82% 30.32 in 10.0 mi Calm Calm - N/A   Unknown
10:55 AM 53.6 °F 48.2 °F 82% 30.32 in 10.0 mi NE 4.6 mph - N/A   Unknown
11:15 AM 53.6 °F 50.0 °F 88% 30.33 in 10.0 mi North 4.6 mph - N/A   Unknown
11:35 AM 53.6 °F 50.0 °F 88% 30.31 in 7.0 mi NNE 4.6 mph - N/A   Unknown
11:55 AM 53.6 °F 51.8 °F 94% 30.29 in 10.0 mi ENE 3.5 mph - N/A   Unknown
12:15 PM 53.6 °F 51.8 °F 94% 30.29 in 10.0 mi Calm Calm - N/A   Unknown
12:35 PM 53.6 °F 51.8 °F 94% 30.27 in 10.0 mi Calm Calm - N/A   Unknown
12:55 PM 53.6 °F 51.8 °F 94% 30.26 in 5.0 mi NNE 3.5 mph - N/A   Unknown
1:15 PM 53.6 °F 51.8 °F 94% 30.25 in 5.0 mi North 4.6 mph - N/A   Unknown
1:35 PM 53.6 °F 53.6 °F 100% 30.25 in 5.0 mi North 3.5 mph - N/A   Unknown
1:55 PM 53.6 °F 53.6 °F 100% 30.23 in 4.0 mi NNE 3.5 mph - N/A   Unknown
2:15 PM 53.6 °F 53.6 °F 100% 30.24 in 4.0 mi NNE 3.5 mph - N/A   Unknown
2:35 PM 53.6 °F 53.6 °F 100% 30.23 in 4.0 mi Calm Calm - N/A   Unknown
2:55 PM 53.6 °F 53.6 °F 100% 30.22 in 4.0 mi NNE 3.5 mph - N/A   Unknown
3:15 PM 55.4 °F 53.6 °F 94% 30.23 in 4.0 mi North 3.5 mph - N/A   Unknown
3:35 PM 55.4 °F 53.6 °F 94% 30.23 in 3.0 mi North 3.5 mph - N/A   Unknown
3:55 PM 55.4 °F 53.6 °F 94% 30.22 in 4.0 mi North 4.6 mph - N/A   Unknown
4:15 PM 55.4 °F 53.6 °F 94% 30.22 in 4.0 mi NNE 4.6 mph - N/A   Unknown
4:35 PM 55.4 °F 53.6 °F 94% 30.21 in 3.0 mi Calm Calm - N/A   Unknown
4:55 PM 55.4 °F 53.6 °F 94% 30.21 in 4.0 mi NE 3.5 mph - N/A   Unknown
5:15 PM 55.4 °F 53.6 °F 94% 30.21 in 3.0 mi Calm Calm - N/A   Unknown
5:35 PM 55.4 °F 53.6 °F 94% 30.20 in 3.0 mi NE 3.5 mph - N/A   Unknown
5:55 PM 55.4 °F 55.4 °F 100% 30.20 in 3.0 mi Calm Calm - N/A   Unknown
6:15 PM 55.4 °F 55.4 °F 100% 30.20 in 3.0 mi Calm Calm - N/A   Unknown
6:35 PM 55.4 °F 55.4 °F 100% 30.20 in 4.0 mi Calm Calm - N/A   Unknown
6:55 PM 55.4 °F 55.4 °F 100% 30.20 in 4.0 mi NNE 4.6 mph - N/A   Unknown
7:15 PM 55.4 °F 55.4 °F 100% 30.19 in 4.0 mi Calm Calm - N/A   Unknown
7:35 PM 55.4 °F 55.4 °F 100% 30.20 in 5.0 mi Calm Calm - N/A   Unknown
7:55 PM 55.4 °F 55.4 °F 100% 30.19 in 5.0 mi Calm Calm - N/A   Unknown
8:15 PM 55.4 °F 55.4 °F 100% 30.19 in 4.0 mi Calm Calm - N/A   Overcast
8:35 PM 55.4 °F 55.4 °F 100% 30.17 in 4.0 mi East 4.6 mph - N/A   Overcast
8:55 PM 55.4 °F 55.4 °F 100% 30.17 in 4.0 mi East 3.5 mph - N/A   Overcast
9:15 PM 55.4 °F 55.4 °F 100% 30.16 in 3.0 mi East 4.6 mph - N/A   Overcast
9:35 PM 55.4 °F 55.4 °F 100% 30.15 in 3.0 mi ESE 5.8 mph - N/A   Overcast
9:55 PM 55.4 °F 55.4 °F 100% 30.15 in 3.0 mi ESE 3.5 mph - N/A   Unknown
10:15 PM 55.4 °F 55.4 °F 100% 30.15 in 4.0 mi ENE 3.5 mph - N/A   Unknown
10:35 PM 55.4 °F 55.4 °F 100% 30.14 in 4.0 mi ESE 5.8 mph - N/A   Unknown
10:55 PM 55.4 °F 55.4 °F 100% 30.13 in 4.0 mi ESE 4.6 mph - N/A   Overcast
11:15 PM 55.4 °F 55.4 °F 100% 30.13 in 4.0 mi Calm Calm - N/A   Overcast
11:35 PM 55.4 °F 55.4 °F 100% 30.13 in 4.0 mi NNE 3.5 mph - N/A   Overcast
11:55 PM 55.4 °F 55.4 °F 100% 30.12 in 3.0 mi Calm Calm - N/A   Overcast